Погода в Мойынкуме

Казахстан     44°17′05″N   72°56′35″E
темп.,
°C
ветер,
м/с
пор.,
м/с
влажн.,
%
обл.,
%
осадки,
мм/ч
давл.,
гПа
погр.,
м
2 марта, вт
вт200:00+4ю45581 0.0 101938
03:00+4ююв45560 0.0 101838
06:00+3ююз45530 0.0 101748
09:00+5зюз611564 0.0 1018215
12:00+10з1014534 0.0 1018984
15:00+11з1014470 0.0 10191725
18:00+6сз796539 0.0 1022616
21:00+3сз3585100 0.0 1024309
3 марта, ср
ср300:00+2зюз3488100 0.2 1026453
03:000зсз3497100 0.3 1026224
06:00−1сз4593100 0.8 1027262
09:00−1сз1186100 0.6 1027216
12:00+1с1174100 0.6 1027390
15:00+3с1168100 0.0 1026542
18:00+3св1167100 0.0 1025561
21:00+2всв3372100 0.0 102571
4 марта, чт
чт400:00+1всв3577100 0.0 1024127
03:00+1всв2288100 0.0 102375
06:000ссв119998 0.7 102343
09:00+1юв3397100 0.4 102296
12:00+6ю458297 0.4 1021532
15:00+9юз356395 0.0 10181087
18:00+9юв127375 0.0 101728
21:00+6юв7137816 0.0 1013259
5 марта, пт
пт500:00+7юз10158445 1.5 1013651
03:00+4з131890100 3.3 10191034
06:00+2зсз111579100 3.3 10271017
09:00+1зсз8128767 0.0 1033905
12:00+3з566237 0.0 10341115
15:00+3зюз2258100 0.0 10331098
18:00+4в235785 0.0 1031883
21:00+1всв46700 0.0 1029111
6 марта, сб
сб600:00+1всв610720 0.0 1028222
03:00+1всв711700 0.0 1025268
06:00+1всв69740 0.0 1023192
09:00+2всв586735 0.0 1021258
12:00+7всв575167 0.0 1018467
15:00+10всв8104793 0.0 1015758
18:00+7всв8135197 0.0 1015429
21:00+5всв71354100 0.0 1016362